Terminal Aerodrome Forecast
Issued by NWS Houston/Galveston, TX

Home | Current Version | Previous Version | Text Only | Print | Product List | Glossary On
Versions: 1 2 3 4 5 6 7 8 9 10 11 12 13 14 15 16 17 18 19 20 21 22 23 24 25 26 27 28 29 30 31 32 33 34
000
FTUS44 KHGX 281957 AAA
TAFGLS
TAF AMD
KGLS 281957Z 2820/2918 19013KT P6SM SKC
     FM290400 25008KT P6SM FEW070 FEW250=

USA.gov is the U.S. government's official web portal to all federal, state and local government web resources and services.